Wetbulb
32.35 28.30 26.14 29.71 29.35 31.01 28.35 26.23 25.48 28.00 31.09 29.86 28.53 30.97 33.22 33.22 31.49 31.83 31.58 31.26 31.46 34.32 35.47 35.58 36.09 37.12 38.77 38.61 39.60 39.74 39.21 38.53 37.81 36.15 35.22 34.24 33.65 34.03 34.59 35.55 36.91 36.76 37.02 37.52
28.46 25.50 32.24 33.02 32.32 31.18 30.21 26.43 26.21 29.95 31.15 29.33 28.08 28.24 31.45 32.30 33.68 35.63 34.56 32.56 33.22 32.65 33.83 35.56 35.67 36.97 39.11 39.15 39.02 38.25 38.57 37.48 36.92 35.86 34.69 33.97 33.05 33.07 33.80 34.93 35.28 36.03 36.20 36.56
25.46 28.99 34.01 32.30 29.80 28.63 28.28 27.35 27.22 27.30 28.80 28.34 26.24 25.93 27.95 30.91 32.77 32.30 33.49 35.92 35.58 34.95 34.51 34.84 35.95 36.63 36.09 37.80 37.72 37.99 37.19 36.54 35.70 35.43 34.64 33.59 33.10 32.59 32.71 32.95 33.32 34.59 35.27 35.54
27.97 32.38 31.12 28.80 28.79 30.27 25.23 31.18 31.34 29.14 25.57 19.22 25.88 16.43 25.83 28.99 31.80 31.45 32.87 31.75 34.16 34.80 36.11 36.85 37.11 36.41 37.31 37.99 36.26 36.97 36.47 35.52 35.21 34.80 33.64 32.54 31.19 30.35 30.81 31.31 32.42 32.94 33.94 33.99
26.06 27.09 27.35 27.97 30.05 31.75 27.10 30.37 29.39 27.70 23.93 21.36 21.50 18.18 25.05 26.71 29.93 32.59 33.69 32.23 32.91 34.64 36.23 36.85 37.59 38.10 37.90 36.38 35.92 35.35 35.14 34.75 33.99 33.65 33.03 31.72 30.79 30.80 30.85 30.76 30.95 31.29 32.16 33.00
27.81 30.37 30.29 29.49 31.12 32.21 31.96 29.99 29.04 26.95 23.61 9.33 21.67 20.66 24.10 26.55 31.94 33.06 32.61 32.56 31.83 32.24 36.13 37.92 38.58 38.11 34.83 34.74 34.70 34.20 34.07 33.44 33.44 32.81 32.13 31.46 30.70 30.23 29.60 29.73 29.30 29.70 30.48 31.05
25.79 26.67 29.69 32.19 27.21 31.30 30.77 26.47 18.26 11.01 7.98 10.82 22.22 19.88 26.04 31.01 32.45 33.84 33.60 33.41 31.06 31.71 35.72 36.48 34.74 35.30 34.81 34.92 34.41 33.98 33.64 32.58 32.75 32.30 31.65 31.35 30.84 30.22 29.41 29.24 29.08 28.97 28.65 28.98
19.52 20.04 27.00 30.16 29.52 26.06 27.28 27.73 19.12 8.01 9.33 14.85 22.63 17.53 25.56 32.82 34.33 34.07 33.69 32.73 31.91 32.64 35.82 36.34 36.17 36.20 35.68 35.42 34.40 34.00 33.04 32.36 32.15 31.78 31.53 31.41 31.31 30.36 29.58 29.30 28.73 28.29 28.09 28.47
18.83 21.80 26.98 28.69 30.47 31.33 26.55 22.86 29.17 18.53 9.21 11.39 20.23 24.11 29.73 32.31 32.08 32.98 32.83 31.06 30.58 32.05 34.21 35.41 36.05 36.15 35.59 35.24 34.86 34.10 32.61 32.20 31.81 31.58 31.32 30.84 30.65 29.97 29.28 29.03 28.65 27.92 28.01 30.08
25.43 18.05 25.57 26.95 29.10 29.12 26.67 29.52 23.61 21.70 9.81 4.57 15.95 19.09 24.26 30.21 32.47 31.84 32.20 31.66 30.83 31.62 32.99 34.21 34.84 35.19 35.85 35.91 34.60 32.91 32.79 32.14 31.59 31.41 30.98 30.96 30.13 29.87 29.51 28.75 28.25 28.01 28.16 29.77
27.13 24.82 22.85 25.20 23.23 22.84 23.14 17.96 23.43 26.72 22.88 9.53 7.39 19.02 27.93 31.87 31.87 31.60 32.61 31.73 31.16 31.47 32.47 33.54 34.61 35.27 35.11 33.77 32.77 32.33 31.54 31.20 30.95 30.94 30.49 30.10 29.77 29.81 29.33 28.96 27.88 27.66 28.38 29.04
29.27 27.46 19.86 21.62 26.92 28.04 27.51 23.83 24.29 21.73 17.10 19.25 16.05 22.23 30.60 29.58 31.55 32.30 33.07 32.59 31.61 32.82 33.33 33.48 32.95 32.95 32.75 33.20 32.09 31.63 30.60 30.75 31.10 30.67 30.19 30.25 30.16 29.42 28.66 27.81 26.85 27.33 26.52 27.51
28.82 20.01 9.39 20.34 22.21 23.67 23.25 24.79 25.95 23.12 24.25 21.83 11.69 20.25 30.26 30.50 29.70 31.71 31.80 32.27 31.95 32.37 33.20 32.55 31.41 32.38 32.77 32.67 31.51 30.55 30.31 30.75 30.66 30.13 29.76 29.59 28.85 27.26 20.40 17.78 18.28 22.80 20.81 21.56
32.79 25.19 15.47 17.97 20.84 22.36 20.41 24.95 26.12 23.88 19.04 18.60 22.60 25.34 31.52 33.97 33.22 32.45 31.99 31.55 31.37 30.62 31.80 31.26 31.16 31.92 32.45 32.12 31.36 30.29 30.11 30.56 29.98 29.70 28.93 27.75 26.63 25.59 21.23 15.44 25.43 27.46 22.64 20.82
23.07 14.75 22.27 21.16 25.84 23.58 22.46 22.90 26.24 23.83 24.68 21.52 24.40 24.28 28.60 32.39 34.04 36.18 29.54 30.10 28.69 29.55 31.02 31.91 31.75 30.83 29.96 29.43 29.49 29.39 29.36 29.58 29.01 27.22 25.76 23.92 22.93 18.17 14.68 12.17 13.02 20.65 29.84 19.33
23.89 13.21 16.79 15.66 23.68 27.27 25.46 26.28 23.28 25.94 27.44 26.30 27.58 25.55 30.12 31.63 32.11 28.94 30.51 26.83 28.12 28.17 30.20 32.50 29.34 29.45 30.00 30.70 29.91 29.19 28.52 28.12 28.03 24.81 23.48 19.13 16.81 13.20 14.21 8.37 8.67 13.78 17.65 15.75
13.77 16.80 14.55 8.99 20.76 24.74 22.24 25.58 26.99 21.94 21.16 22.90 20.30 27.18 31.57 30.43 30.69 31.45 31.77 26.85 28.01 28.94 30.55 32.48 30.98 31.95 31.83 30.97 31.19 29.45 28.25 25.97 25.53 23.66 20.02 17.78 15.52 15.90 12.92 7.70 6.67 11.58 13.32 11.46
13.10 13.41 16.11 10.22 12.14 8.67 24.53 29.39 30.84 29.14 30.24 29.71 27.32 29.64 31.51 31.06 33.20 32.90 28.62 29.49 28.91 26.80 27.21 30.11 30.97 31.11 31.26 28.24 28.76 27.92 26.24 26.02 24.67 21.58 19.52 16.92 16.28 17.48 9.51 6.62 9.71 8.42 10.17 11.96
19.69 15.25 11.42 9.58 11.17 17.88 23.02 24.75 25.04 23.99 26.97 31.48 30.63 32.45 33.69 32.24 28.70 29.94 28.97 31.67 33.29 32.24 32.50 33.07 31.77 31.57 28.57 28.50 29.25 27.79 24.60 24.32 23.35 22.64 20.85 19.20 18.55 18.68 12.04 11.54 13.28 10.13 11.98 15.14
20.40 18.65 13.49 13.46 10.55 9.88 21.24 27.92 28.61 29.29 22.71 31.93 31.48 32.73 32.77 28.33 24.21 30.46 29.09 28.39 31.90 32.89 25.18 29.09 27.80 27.42 26.22 26.02 27.68 26.82 24.78 23.78 23.66 24.27 23.75 21.36 20.22 20.81 15.29 14.82 11.58 9.08 11.36 17.95
13.42 16.38 10.40 11.30 12.12 17.37 26.07 27.12 27.39 21.07 22.52 27.90 29.96 30.47 30.08 27.98 30.01 27.88 21.99 21.52 19.08 21.46 24.32 19.85 22.05 26.52 22.83 24.04 26.59 26.22 23.88 24.02 26.72 25.03 21.04 19.70 20.32 21.34 18.28 14.86 14.10 14.67 14.12 16.93
12.77 13.50 13.92 13.17 12.51 11.29 25.39 30.16 23.86 24.32 27.19 28.22 28.14 28.97 29.86 30.26 30.27 26.10 24.57 22.94 21.65 20.41 22.55 23.99 24.61 21.52 17.01 22.78 26.62 25.03 24.76 24.72 21.95 22.09 21.23 21.05 20.88 21.77 19.79 17.93 18.58 19.83 20.32 19.97
11.64 16.28 12.81 17.26 19.25 24.72 25.78 26.19 30.23 29.48 27.14 28.48 27.84 28.86 29.99 29.13 28.01 28.26 29.50 27.86 26.92 25.52 25.97 23.79 25.63 25.19 21.46 23.65 26.40 25.98 22.86 22.44 21.54 21.48 21.95 21.58 21.29 21.67 21.19 19.86 20.41 21.44 22.13 20.73
19.22 22.07 16.16 16.51 21.21 20.92 25.30 29.64 30.11 30.18 27.39 29.16 31.11 29.68 29.77 29.03 29.68 30.31 30.97 30.97 30.63 30.11 27.09 24.42 24.68 25.30 24.90 23.95 25.36 25.84 23.80 24.05 22.53 23.30 22.17 21.50 21.54 21.35 20.57 22.33 22.37 22.33 21.23 20.45
18.30 20.01 16.85 16.82 21.44 23.11 25.53 27.20 29.64 29.05 29.11 29.36 30.09 30.59 29.66 30.82 33.25 32.04 32.27 32.56 32.14 31.59 27.94 26.99 26.64 26.42 26.49 25.76 25.28 25.38 25.05 22.96 22.98 22.99 22.83 22.54 23.04 21.95 22.32 22.43 22.34 22.36 22.62 23.73
19.79 17.46 15.23 14.56 22.83 22.34 24.35 27.60 28.00 27.34 27.07 28.70 28.07 28.75 30.02 31.33 31.93 33.82 32.91 31.49 31.34 28.90 27.43 29.02 27.88 27.23 26.47 25.35 24.91 24.37 23.42 23.48 23.93 23.01 22.80 22.46 23.52 22.53 23.09 22.40 21.62 27.09 27.73 28.34
MSLP
1013.47 1013.68 1013.23 1012.55 1012.98 1012.90 1012.74 1012.73 1012.70 1012.17 1011.84 1012.05 1011.85 1010.83 1010.26 1010.05 1010.38 1010.28 1010.40 1010.67 1010.57 1010.47 1010.65 1011.23 1011.74 1012.26 1013.07 1013.82 1014.37 1014.85 1015.42 1015.91 1016.27 1016.89 1017.52 1018.00 1018.22 1018.34 1018.25 1018.20 1018.21 1018.33 1018.45 1018.41
1014.30 1013.54 1012.92 1012.84 1013.16 1013.31 1013.29 1013.25 1012.86 1012.37 1012.16 1012.46 1011.83 1010.77 1009.73 1009.34 1008.99 1008.75 1008.97 1009.51 1009.69 1010.16 1010.53 1011.09 1011.77 1012.47 1012.82 1013.40 1014.15 1014.82 1015.25 1015.77 1016.24 1016.66 1017.33 1017.66 1018.05 1018.26 1018.22 1018.26 1018.33 1018.30 1018.39 1018.43
1014.07 1013.02 1012.42 1012.86 1013.08 1013.41 1013.15 1013.20 1013.06 1012.99 1012.76 1012.66 1012.42 1010.59 1009.03 1007.61 1007.45 1007.45 1007.52 1007.68 1008.34 1008.78 1009.70 1010.65 1011.58 1012.11 1012.77 1013.32 1013.80 1014.47 1015.13 1015.63 1016.10 1016.53 1017.18 1017.67 1017.98 1018.13 1018.20 1018.45 1018.52 1018.51 1018.53 1018.50
1014.00 1012.85 1012.81 1013.01 1012.93 1013.24 1013.22 1012.50 1012.78 1013.25 1013.84 1013.79 1012.94 1011.24 1008.71 1007.46 1006.85 1006.65 1006.43 1006.97 1007.19 1007.83 1008.68 1009.68 1010.77 1011.68 1012.20 1012.87 1013.60 1014.29 1015.00 1015.49 1016.02 1016.47 1017.02 1017.53 1018.02 1018.51 1018.73 1018.83 1018.76 1018.68 1018.55 1018.48
1013.26 1012.81 1012.75 1012.74 1012.52 1012.72 1012.63 1012.41 1013.11 1013.72 1014.25 1014.23 1013.65 1013.18 1008.17 1007.35 1006.48 1005.54 1005.11 1005.65 1006.41 1006.88 1007.63 1008.60 1009.73 1010.68 1011.72 1012.64 1013.38 1014.31 1014.93 1015.53 1016.02 1016.42 1016.82 1017.41 1017.89 1018.32 1018.56 1018.76 1018.82 1018.83 1018.70 1018.61
1013.34 1012.86 1012.67 1012.31 1012.39 1012.53 1012.50 1013.03 1013.94 1014.81 1015.30 1014.96 1013.49 1012.81 1008.03 1006.78 1005.24 1004.32 1004.30 1005.03 1005.65 1006.43 1007.21 1008.19 1009.32 1010.60 1011.77 1012.65 1013.46 1014.24 1014.84 1015.46 1015.95 1016.45 1016.82 1017.20 1017.63 1018.16 1018.59 1018.84 1019.02 1018.81 1018.68 1018.46
1013.38 1012.85 1012.46 1012.36 1012.62 1012.75 1012.96 1013.81 1014.95 1016.19 1016.64 1014.87 1013.33 1012.26 1007.84 1005.14 1004.19 1004.01 1004.30 1004.78 1005.49 1006.29 1007.07 1008.00 1009.13 1010.40 1011.61 1012.59 1013.41 1014.04 1014.68 1015.41 1015.88 1016.26 1016.74 1017.10 1017.48 1017.96 1018.44 1018.78 1018.84 1018.75 1018.54 1018.32
1013.86 1013.04 1012.59 1012.23 1012.14 1012.32 1013.21 1013.32 1014.76 1015.66 1016.21 1015.24 1013.74 1010.72 1006.43 1003.95 1003.64 1003.57 1003.98 1004.58 1005.36 1006.40 1006.98 1007.64 1008.59 1009.75 1010.99 1012.09 1013.10 1013.73 1014.52 1015.22 1015.75 1016.15 1016.66 1016.93 1017.28 1017.78 1018.20 1018.46 1018.55 1018.59 1018.58 1018.52
1013.76 1013.34 1012.72 1012.54 1012.63 1012.85 1013.46 1013.86 1013.68 1015.24 1016.36 1015.84 1012.49 1009.28 1006.26 1003.67 1003.43 1003.76 1004.09 1004.70 1005.38 1006.14 1006.88 1007.62 1008.58 1009.39 1010.56 1011.63 1012.49 1013.20 1014.17 1014.89 1015.42 1015.88 1016.32 1016.86 1017.19 1017.57 1018.01 1018.18 1018.33 1018.44 1018.45 1018.30
1013.60 1013.64 1013.30 1013.13 1013.06 1013.25 1013.38 1013.25 1014.23 1016.07 1016.57 1015.22 1011.83 1009.48 1006.40 1004.33 1003.46 1003.71 1004.10 1004.76 1005.49 1006.14 1006.96 1007.60 1008.37 1009.21 1010.18 1011.10 1012.07 1013.04 1013.90 1014.48 1015.03 1015.71 1016.06 1016.63 1017.00 1017.38 1017.69 1018.00 1018.24 1018.27 1018.24 1018.05
1014.26 1014.21 1014.10 1013.75 1013.23 1012.90 1013.54 1013.62 1013.95 1014.60 1015.47 1014.32 1012.13 1007.87 1005.09 1004.07 1003.81 1004.12 1004.39 1004.88 1005.51 1006.13 1006.84 1007.51 1008.29 1009.16 1009.97 1011.02 1011.89 1012.87 1013.80 1014.35 1015.06 1015.58 1015.91 1016.44 1016.93 1017.24 1017.57 1017.87 1017.96 1018.03 1018.12 1017.94
1015.38 1014.49 1014.27 1013.46 1012.63 1012.44 1012.36 1012.43 1012.64 1013.49 1014.00 1013.39 1012.20 1007.19 1004.98 1004.32 1004.31 1004.37 1004.58 1004.89 1005.47 1006.18 1006.75 1007.45 1008.24 1009.14 1010.08 1010.92 1011.84 1012.69 1013.49 1014.02 1014.67 1015.10 1015.57 1016.13 1016.69 1017.09 1017.51 1017.72 1017.76 1017.97 1017.98 1017.77
1017.31 1015.78 1015.31 1013.78 1013.38 1012.86 1012.46 1012.01 1012.09 1012.12 1012.45 1011.63 1011.22 1006.77 1005.04 1004.72 1004.64 1004.69 1005.05 1005.44 1005.86 1006.44 1006.99 1007.64 1008.45 1009.19 1009.87 1010.57 1011.53 1012.40 1013.11 1013.62 1014.35 1014.81 1015.33 1016.04 1016.51 1017.00 1017.56 1017.66 1017.66 1017.67 1017.60 1017.43
1018.05 1016.60 1015.88 1014.36 1013.10 1012.31 1012.02 1010.94 1010.75 1011.35 1011.69 1009.92 1008.48 1006.92 1006.00 1004.78 1004.78 1005.03 1005.42 1005.72 1006.48 1006.78 1007.40 1007.83 1008.44 1008.87 1009.49 1010.17 1011.01 1011.99 1012.81 1013.29 1014.01 1014.60 1015.16 1015.95 1016.38 1016.83 1017.28 1017.40 1017.35 1017.45 1017.36 1017.29
1019.94 1018.56 1016.82 1015.38 1013.81 1012.69 1011.50 1010.96 1010.47 1010.38 1009.30 1010.23 1005.87 1007.05 1006.66 1005.61 1005.29 1004.42 1005.32 1005.78 1006.44 1006.90 1007.21 1007.64 1008.07 1008.63 1009.31 1010.00 1010.71 1011.57 1012.28 1012.94 1013.61 1014.31 1014.96 1015.74 1016.22 1016.70 1017.14 1017.18 1017.09 1017.19 1016.96 1017.01
1020.30 1019.42 1018.07 1015.51 1013.51 1012.13 1011.20 1010.68 1010.15 1009.16 1008.72 1007.85 1007.22 1005.76 1005.54 1005.26 1005.26 1005.37 1005.28 1005.83 1006.29 1006.66 1006.87 1007.02 1007.69 1008.32 1008.81 1009.30 1010.07 1011.01 1011.67 1012.43 1013.19 1013.96 1014.69 1015.71 1016.40 1016.78 1017.03 1016.95 1017.09 1017.16 1016.61 1016.77
1021.06 1019.80 1018.86 1016.11 1014.24 1012.44 1009.98 1007.60 1008.45 1008.05 1008.09 1007.29 1007.14 1003.87 1004.66 1004.44 1004.33 1004.51 1004.80 1005.63 1005.92 1005.83 1006.05 1006.55 1006.88 1007.31 1007.90 1008.49 1009.17 1009.97 1010.95 1011.89 1012.71 1013.50 1014.42 1015.33 1016.10 1016.65 1016.89 1016.70 1017.26 1017.11 1016.83 1016.64
1020.24 1020.10 1019.54 1017.01 1015.96 1012.69 1006.95 1005.80 1005.94 1006.26 1005.57 1005.54 1004.81 1004.23 1003.41 1003.41 1003.20 1003.74 1004.12 1004.64 1005.01 1005.36 1005.77 1005.72 1006.14 1006.85 1007.36 1007.98 1008.72 1009.51 1010.46 1011.46 1012.27 1013.08 1013.97 1014.82 1015.57 1016.16 1016.60 1016.73 1017.10 1016.90 1016.47 1016.68
1018.66 1019.14 1018.49 1017.01 1015.01 1010.78 1007.96 1005.99 1005.42 1005.43 1003.78 1004.15 1003.74 1003.14 1002.17 1003.22 1003.68 1002.92 1003.60 1003.77 1003.89 1004.19 1004.34 1004.51 1004.98 1005.83 1006.58 1007.28 1007.96 1008.98 1010.14 1010.99 1011.88 1012.46 1013.20 1013.99 1014.71 1015.48 1015.86 1016.03 1016.34 1016.32 1016.09 1016.18
1017.12 1017.36 1017.49 1015.80 1014.23 1010.86 1006.91 1005.10 1004.84 1005.03 1004.09 1003.49 1002.77 1002.28 1002.57 1003.37 1003.86 1002.46 1002.72 1002.84 1003.16 1003.28 1003.78 1004.25 1004.65 1005.48 1006.14 1006.72 1007.49 1008.49 1009.33 1010.36 1010.95 1011.37 1011.93 1012.81 1013.67 1014.44 1014.82 1015.09 1015.57 1015.71 1015.44 1015.28
1016.95 1015.88 1015.31 1014.53 1013.52 1011.32 1008.61 1007.06 1004.96 1005.72 1005.65 1004.13 1003.30 1002.97 1002.83 1003.00 1002.73 1002.88 1003.02 1003.18 1003.44 1003.65 1003.76 1004.11 1004.70 1005.25 1005.87 1006.54 1007.20 1008.07 1008.81 1009.23 1009.44 1010.49 1011.30 1012.21 1012.87 1013.38 1013.69 1014.26 1014.66 1014.98 1015.34 1015.17
1016.72 1015.47 1013.97 1013.64 1012.52 1011.31 1009.91 1008.08 1007.83 1008.39 1006.49 1005.49 1004.21 1003.18 1002.74 1002.46 1002.39 1002.79 1003.09 1003.23 1003.34 1003.72 1004.00 1004.32 1004.86 1005.45 1006.08 1006.39 1007.01 1007.67 1008.10 1008.46 1009.28 1010.09 1010.89 1011.58 1012.24 1012.77 1013.20 1013.54 1013.94 1014.22 1014.45 1014.54
1016.10 1015.39 1014.56 1013.38 1011.09 1010.97 1011.25 1010.65 1009.47 1008.97 1008.22 1005.96 1004.94 1003.64 1002.83 1002.38 1002.51 1002.76 1003.03 1003.21 1003.36 1003.64 1004.24 1004.63 1004.98 1005.75 1006.38 1006.68 1006.94 1007.44 1007.79 1008.52 1009.28 1009.95 1010.42 1011.00 1011.69 1012.10 1012.49 1012.89 1013.20 1013.54 1013.66 1013.84
1014.99 1014.21 1013.86 1013.58 1010.86 1010.94 1010.83 1010.12 1009.95 1009.06 1007.75 1006.34 1005.57 1004.03 1003.22 1002.84 1002.47 1002.51 1002.83 1003.30 1003.52 1003.87 1004.56 1004.94 1005.24 1005.77 1006.47 1006.89 1007.01 1007.19 1007.67 1008.27 1008.98 1009.51 1009.96 1010.54 1011.09 1011.40 1011.75 1012.06 1012.21 1012.46 1012.75 1013.00
1013.96 1013.38 1012.52 1011.41 1010.95 1010.41 1010.01 1010.12 1010.00 1009.31 1007.76 1006.39 1004.75 1004.21 1003.78 1003.14 1002.89 1002.84 1002.92 1003.47 1003.94 1004.24 1004.64 1005.09 1005.57 1005.90 1006.18 1006.37 1006.66 1007.05 1007.56 1007.90 1008.46 1008.96 1009.39 1009.88 1010.24 1010.50 1010.88 1011.14 1011.12 1011.12 1011.10 1011.29
1013.00 1012.05 1011.78 1010.48 1009.99 1009.97 1009.32 1009.62 1009.00 1007.83 1007.24 1006.34 1006.02 1005.02 1004.26 1003.35 1003.26 1003.52 1003.94 1003.83 1004.22 1004.95 1005.19 1005.39 1005.67 1006.10 1006.56 1006.75 1006.96 1007.10 1007.26 1007.54 1007.90 1008.42 1008.79 1009.19 1009.45 1009.63 1009.96 1010.34 1010.52 1010.18 1010.18 1010.50
Wind_Speed
2 3 12 12 2 2 2 3 4 3 3 4 9 19 14 10 6 10 9 9 9 14 7 7 8 8 9 8 10 9 9 7 5 2 3 2 1 1 1 3 5 5 4 5
3 10 8 4 5 6 6 3 5 6 3 5 6 15 14 10 13 14 15 12 14 6 7 8 8 8 12 14 10 9 8 7 4 3 2 2 2 1 1 1 4 5 6 5
6 5 1 9 5 6 8 10 6 7 3 4 5 11 8 9 12 8 10 11 11 17 14 10 10 11 9 13 13 10 9 8 6 7 4 3 2 1 3 3 3 3 5 5
7 6 3 3 5 7 5 7 12 7 2 5 2 8 6 5 9 7 12 12 14 15 13 14 15 12 14 13 8 9 9 8 7 7 4 4 3 2 1 1 2 4 5 5
7 2 4 6 6 9 8 1 5 3 3 2 3 2 8 2 8 11 11 11 13 16 17 19 18 17 14 11 10 8 8 8 7 6 6 5 4 2 0 2 4 4 4 5
7 2 3 5 2 1 4 5 6 4 2 3 9 9 9 6 11 7 2 7 11 12 15 16 15 13 9 7 9 8 9 7 7 7 6 6 6 3 0 2 3 3 3 3
2 5 3 3 3 3 1 5 2 5 4 8 1 4 14 7 9 6 5 6 8 9 14 16 16 14 12 13 11 9 9 8 8 7 7 6 5 4 3 3 2 4 3 3
4 6 8 4 5 7 7 8 5 8 4 5 2 9 10 7 9 8 8 5 7 9 13 16 17 16 16 15 12 9 9 8 8 7 6 6 5 3 2 2 2 3 2 3
4 6 1 2 1 1 6 5 4 3 2 3 5 8 11 8 10 7 7 6 10 10 11 14 14 14 14 13 14 12 10 7 8 7 6 6 5 5 4 2 1 2 3 4
4 4 1 1 1 0 2 2 3 4 3 5 6 7 7 6 8 5 6 8 8 7 9 11 12 14 12 12 10 8 8 9 8 7 6 5 6 5 3 2 2 2 4 4
3 5 2 2 7 8 3 1 2 6 5 5 2 8 9 11 6 7 8 8 8 8 11 11 11 11 10 8 9 9 8 9 8 7 6 6 5 5 4 3 1 2 3 4
5 4 4 10 4 5 4 8 8 7 7 4 3 13 3 3 6 5 8 7 6 7 8 9 9 10 11 11 10 11 8 8 8 7 7 6 5 5 4 3 0 2 3 4
9 5 2 5 4 2 5 6 5 4 3 15 4 8 2 4 4 6 7 6 7 6 7 7 8 11 11 11 10 9 9 9 7 7 7 6 6 5 4 3 3 2 2 4
6 5 6 11 4 2 5 10 16 7 5 8 23 15 16 18 11 6 6 4 6 6 6 6 7 9 9 10 11 10 9 8 8 7 7 6 6 6 5 4 3 3 3 3
4 6 6 16 21 7 5 7 16 18 23 12 20 21 16 20 20 21 4 3 5 7 9 9 9 9 8 8 8 8 8 9 8 7 7 7 5 4 4 4 3 5 3 3
1 6 13 14 17 19 19 11 10 21 18 27 18 23 12 13 7 6 8 4 7 9 10 9 7 8 11 12 11 10 10 10 9 8 8 6 6 4 6 4 4 5 3 3
3 3 4 8 13 17 14 29 18 7 8 12 17 25 10 18 17 19 16 10 11 12 12 10 12 13 11 12 12 13 12 9 10 9 7 7 6 6 7 4 3 5 4 1
10 6 4 10 6 12 10 12 19 21 24 21 18 17 21 17 17 15 6 8 11 9 8 10 8 7 8 6 8 7 10 11 10 8 8 7 7 7 5 4 5 4 3 3
20 11 6 6 8 19 22 4 9 9 22 16 23 24 29 11 5 14 8 12 13 11 13 12 8 7 6 10 10 11 10 10 10 11 10 10 9 8 6 6 6 5 3 2
11 17 10 6 6 9 5 14 9 4 16 7 9 17 9 7 4 12 5 6 12 9 5 7 6 4 7 7 11 12 11 12 13 13 13 10 10 9 9 7 6 4 3 4
6 6 19 17 11 11 11 13 2 13 5 10 7 7 5 8 7 3 3 3 3 4 5 4 6 7 5 8 10 10 10 15 14 8 7 8 9 10 8 6 4 3 3 2
4 8 6 12 13 16 18 9 4 9 11 12 8 6 8 7 4 2 0 1 1 2 3 3 5 4 3 6 9 8 12 7 6 8 8 8 9 8 6 7 5 4 5 5
5 2 4 5 5 14 15 12 5 11 16 11 11 13 6 1 2 3 3 3 3 4 4 3 6 6 3 5 5 8 4 6 6 7 8 8 7 8 7 8 7 4 5 4
4 3 4 7 10 22 19 8 14 14 16 14 11 11 7 3 4 5 4 3 4 4 4 3 4 5 4 6 6 4 5 7 7 7 7 6 8 8 7 6 6 6 6 5
6 4 4 13 11 13 13 13 13 20 14 15 18 13 9 6 5 2 4 4 3 4 4 3 3 3 1 3 4 5 6 6 6 6 5 7 7 8 7 9 8 9 7 8
10 14 11 13 12 10 14 12 16 19 12 15 14 18 11 3 3 3 2 4 4 3 1 4 6 5 4 2 1 3 4 6 6 6 6 7 7 7 7 7 7 16 16 15
Wind_Direction
268 133 218 206 248 255 182 193 241 248 230 189 231 256 261 264 261 261 241 228 226 224 220 196 185 163 145 148 145 153 147 153 135 114 119 104 166 306 41 40 29 13 5 354
42 240 225 166 194 235 245 272 261 283 241 187 288 270 264 253 248 232 228 221 218 209 198 183 169 160 168 162 160 154 153 152 143 121 135 128 153 188 150 42 11 9 4 348
179 242 301 182 176 198 234 234 243 233 328 242 326 283 240 257 242 234 226 224 207 205 194 180 174 174 161 168 167 161 156 149 143 128 115 95 84 43 34 19 3 360 340 331
236 265 211 177 215 166 251 214 229 232 162 236 98 279 261 253 258 222 233 207 211 201 192 176 175 176 175 176 154 148 149 146 144 144 131 133 136 122 229 302 310 326 335 326
248 250 204 203 220 163 230 125 185 198 185 20 202 12 269 261 278 255 234 213 207 199 185 177 179 177 180 159 159 151 144 144 142 144 143 140 134 146 218 313 322 316 314 307
241 270 221 205 95 312 139 68 51 53 89 323 207 174 269 203 221 250 213 218 201 187 183 175 174 164 157 139 145 152 149 151 151 149 147 145 144 160 281 313 302 312 299 306
259 220 205 171 129 65 244 95 310 343 356 226 38 209 246 253 262 248 255 249 202 176 169 167 161 163 156 163 166 158 156 159 162 153 155 155 157 164 202 260 292 319 324 342
205 298 173 192 202 180 205 156 192 209 214 265 122 237 246 250 269 252 249 217 167 169 175 176 172 168 168 169 167 162 165 158 161 157 165 161 155 158 189 226 264 301 309 302
190 271 49 95 1 119 190 221 180 73 81 35 234 279 288 271 251 252 257 185 185 174 175 175 172 170 167 168 175 172 165 161 164 165 159 167 158 164 203 237 272 280 302 281
277 300 44 73 85 52 180 176 111 76 263 269 276 273 240 300 275 243 241 216 192 173 172 173 173 170 172 174 164 154 165 169 162 163 162 166 168 176 181 192 243 290 289 285
351 176 220 123 202 181 147 259 42 129 184 217 281 260 218 238 342 250 250 223 199 182 182 179 177 173 163 150 153 165 164 157 164 167 161 158 172 173 178 195 219 293 296 303
301 237 234 219 230 218 210 198 175 171 213 240 169 252 198 266 301 301 262 237 204 191 186 176 163 155 160 166 163 173 167 165 174 166 158 166 167 170 189 201 166 285 296 301
340 295 341 304 342 348 223 191 202 121 96 232 171 264 334 297 303 334 291 260 229 203 172 156 150 172 175 172 172 172 173 174 169 161 158 164 174 174 191 209 234 258 264 281
322 234 209 245 256 111 227 205 199 152 198 223 235 260 295 295 281 281 305 259 243 204 201 190 178 185 180 177 176 173 177 171 167 165 163 175 180 184 195 196 211 228 240 261
60 283 331 313 283 254 242 277 219 204 225 201 251 236 243 252 275 289 232 218 193 221 205 204 197 191 182 175 173 170 174 171 168 166 164 189 176 164 191 201 218 254 232 270
93 270 322 303 291 247 250 250 232 227 227 237 259 268 226 262 265 268 260 229 217 217 229 212 198 186 190 190 187 180 178 177 168 171 184 171 173 173 208 209 222 256 235 296
235 265 343 274 344 299 237 223 223 200 219 220 233 244 253 258 243 244 240 203 218 215 211 210 203 200 197 193 184 186 180 161 173 174 172 180 180 194 213 191 227 239 243 173
231 230 230 280 315 262 270 174 204 219 236 226 249 265 253 239 253 250 207 195 228 227 216 215 206 199 203 178 178 151 155 173 176 176 179 180 185 206 206 181 223 229 212 214
215 205 234 239 255 295 294 229 165 176 255 228 236 250 255 260 296 264 201 210 218 210 217 215 195 193 163 184 172 162 162 169 175 188 192 190 189 200 196 207 220 236 188 185
236 209 206 185 253 257 282 238 186 129 270 248 229 248 261 135 235 265 217 208 229 226 164 187 189 173 167 177 159 164 171 177 195 195 197 185 187 198 198 202 198 227 225 195
303 211 208 222 226 268 338 315 174 175 275 322 327 289 256 207 210 234 296 283 256 251 201 159 163 173 171 147 152 172 168 200 201 180 163 174 189 201 198 183 179 193 215 224
271 281 203 212 210 238 8 335 1 323 314 313 316 301 278 252 223 244 335 290 117 137 102 116 126 131 147 146 159 167 197 187 150 157 171 187 196 198 188 190 195 200 195 209
258 317 320 322 329 341 320 289 293 333 307 329 321 317 322 176 179 161 88 89 125 129 123 129 134 132 123 153 165 185 192 145 152 164 191 194 192 195 190 193 204 202 202 202
229 190 262 330 323 333 307 299 327 323 315 327 327 320 319 319 155 116 93 65 76 96 117 131 118 115 148 179 191 171 152 156 161 193 200 187 195 197 193 207 201 202 198 205
257 179 246 256 284 293 285 330 319 314 305 331 339 348 301 324 342 339 133 92 68 74 56 55 80 64 35 166 198 190 181 160 179 195 195 203 205 200 204 215 210 210 216 195
251 259 254 274 288 278 293 301 294 312 319 345 339 323 317 280 300 314 41 80 59 57 90 72 56 45 43 14 276 208 186 180 180 202 203 209 207 197 205 209 231 232 227 221